Location: Newark
(43.6583°N, 1.6617°E)
Time: 02:14:46
(UTC+00:00)

Altair - Visible Passes

Search period start: 25 August 2019 00:00
Search period end: 04 September 2019 00:00
Orbit: 1501 x 1683 km, 47.2° (Epoch: 24 August)

Date Brightness Start Highest point End Pass type
(mag) Time Alt. Az. Time Alt. Az. Time Alt. Az.
25 Aug 7.6 02:06:36 48° SSW 02:09:16 62° SE 02:18:38 10° ENE visible
25 Aug 7.7 04:04:37 12° W 04:14:01 77° NNW 04:23:29 10° ENE visible
25 Aug 9.2 23:44:40 15° E 23:44:40 15° E 23:46:57 10° E visible
26 Aug 7.6 01:42:40 54° S 01:44:07 58° SE 01:53:28 10° ENE visible
26 Aug 7.6 03:40:40 17° W 03:48:49 79° NNW 03:58:18 10° ENE visible
26 Aug 9.4 23:20:43 11° E 23:20:43 11° E 23:21:21 10° E visible
27 Aug 7.7 01:18:43 54° SSE 01:18:59 55° SE 01:28:17 10° ENE visible
27 Aug 7.6 03:16:43 23° WSW 03:23:35 81° NNW 03:33:08 10° ENE visible
28 Aug 7.8 00:54:44 50° SE 00:54:44 50° SE 01:03:05 10° ENE visible
28 Aug 7.5 02:52:45 30° WSW 02:58:22 83° NNW 03:07:57 10° ENE visible
29 Aug 8.1 00:30:45 43° ESE 00:30:45 43° ESE 00:37:52 10° ENE visible
29 Aug 7.5 02:28:45 39° WSW 02:33:10 85° NNW 02:42:47 10° ENE visible
29 Aug 7.8 04:28:46 10° W 04:38:32 73° N 04:47:56 10° E visible
30 Aug 8.3 00:06:44 36° E 00:06:44 36° E 00:12:39 10° ENE visible
30 Aug 7.4 02:04:44 50° WSW 02:07:57 88° NNW 02:17:36 10° ENE visible
30 Aug 7.7 04:03:29 10° W 04:13:18 72° N 04:22:44 10° E visible
30 Aug 8.6 23:42:42 29° E 23:42:42 29° E 23:47:26 10° ENE visible
31 Aug 7.4 01:40:43 63° WSW 01:42:44 89° SSE 01:52:26 10° ENE visible
31 Aug 7.7 03:38:42 12° W 03:48:04 72° N 03:57:32 10° E visible
31 Aug 8.8 23:18:40 23° E 23:18:40 23° E 23:22:11 10° ENE visible
01 Sep 7.4 01:16:40 77° SW 01:17:33 86° SSE 01:27:15 10° ENE visible
01 Sep 7.7 03:14:40 17° W 03:22:50 72° N 03:32:20 10° E visible
01 Sep 9.1 22:54:37 18° E 22:54:37 18° E 22:56:55 10° ENE visible
02 Sep 7.4 00:52:37 82° SE 00:52:37 82° SE 01:02:05 10° ENE visible
02 Sep 7.7 02:50:37 22° W 02:57:35 72° N 03:07:08 10° E visible
02 Sep 9.3 22:30:34 13° ENE 22:30:34 13° ENE 22:31:37 10° ENE visible
03 Sep 7.6 00:28:34 68° E 00:28:34 68° E 00:36:54 10° ENE visible
03 Sep 7.6 02:26:34 29° W 02:32:21 72° N 02:41:56 10° E visible
03 Sep 7.6 04:27:51 10° WNW 04:37:42 88° NNE 04:47:07 10° ESE visible
